Regional Weather Roundup
Issued by NWS State College, PA

Home | Current Version | Previous Version | Graphics & Text | Print | Product List | Glossary On
Versions: 1 2 3 4 5 6 7 8 9 10 11 12 13 14 15 16 17 18 19 20 21 22 23 24 25 26 27 28 29 30 31 32 33 34 35 36 37 38 39 40 41 42 43 44 45 46 47 48 49 50
000
ASUS41 KCTP 300403
RWRCTP

REGIONAL WEATHER ROUNDUP
NATIONAL WEATHER SERVICE STATE COLLEGE PA
1200 AM EDT SAT APR 30 2016

Note: "fair" indicates few or no clouds below 12,000 feet with no
significant weather and/or obstructions to visibility.

* = STATION THAT DOES NOT REPORT PRECIPITATION /E.G. RAIN...SNOW...ETC/
    THUNDER OR FOG.

PAZ002>004-007>009-013>016-020>023-029>032-300500-
WESTERN PENNSYLVANIA

CITY           SKY/WX    TMP DP  RH WIND       PRES   REMARKS
ERIE           CLEAR     40  35  83 CALM      30.16S
MEADVILLE      CLOUDY    37  37 100 CALM      30.14R
FRANKLIN*      CLOUDY    43  37  81 NW5       30.16R
NEW CASTLE     CLOUDY    42  40  92 NW7       30.15F
BEAVER COUNTY  NOT AVBL
BUTLER*        CLOUDY    45  41  87 N6        30.16S
PITTSBURGH INT CLOUDY    49  43  80 N12       30.11S
PITTSBURGH     CLOUDY    49  45  86 N7        30.10R
INDIANA*       CLOUDY    50  48  93 CALM      30.14S
LATROBE        CLOUDY    50  50 100 CALM      30.12R
WASHINGTON CO* CLOUDY    48  45  87 N6        30.12S
$$

PAZ004>006-010>012-017>019-024>028-033>037-041-042-045-046-049>053-300500-
CENTRAL PENNSYLVANIA

CITY           SKY/WX    TMP DP  RH WIND       PRES   REMARKS
BRADFORD       CLOUDY    44  41  89 CALM      30.10S
DUBOIS         CLOUDY    46  44  93 W3        30.10R
CLEARFIELD     LGT RAIN  45  43  93 E5        30.11S FOG
JOHNSTOWN      CLOUDY    47  42  83 NW7       30.08S
ALTOONA        FOG       47  46  97 NE6       30.10S VSB 1/2
STATE COLLEGE  DRIZZLE   44  43  99 NE6       30.12R
WILLIAMSPORT   CLOUDY    47  43  86 NE3       30.14R
SELINSGROVE    CLOUDY    46  44  93 NE5       30.14R FOG
FT INDIANTOWN  CLOUDY    45  45 100 E7        30.14R
CAPITAL CITY   CLOUDY    49  46  90 NE6       30.14R FOG
HARRISBURG     DRIZZLE   48  46  93 NE3       30.13R FOG
YORK           LGT RAIN  48  47  96 E8        30.12S FOG
$$

PAZ038>040-043-044-047-048-054-055-060>062-067>071-300500-
EASTERN PENNSYLVANIA

CITY           SKY/WX    TMP DP  RH WIND       PRES   REMARKS
SCRANTON       CLOUDY    44  41  89 CALM      30.14S FOG
MOUNT POCONO   LGT RAIN  37  34  89 CALM      30.12R
ALLENTOWN      CLOUDY    45  39  79 N3        30.16R
QUAKERTOWN*    CLOUDY    45  37  76 NE5       30.16R
READING        CLOUDY    46  41  82 E7        30.14S
LANCASTER      CLOUDY    46  45  96 E6        30.13R FOG
COATESVILLE    CLOUDY    45  45 100 CALM      30.16R
POTTSTOWN      CLOUDY    45  38  76 E3        30.16R
BLUE BELL      CLOUDY    43  37  81 CALM      30.15R
DOYLESTOWN     CLOUDY    44  38  79 N3        30.15R
WILLOW GROVE   NOT AVBL
NORTH PHILA    CLOUDY    46  41  82 N7        30.16R
PHILADELPHIA   CLOUDY    49  39  68 NE8       30.15R
$$




USA.gov is the U.S. government's official web portal to all federal, state and local government web resources and services.